QPF
0.00 0.00 0.00 0.00 0.00 0.00 0.00 0.00 0.00 0.00 0.00 0.00 0.00 0.00 0.00 0.00 0.00 0.00 0.00 0.00 0.00 0.00 0.00 0.00 0.00 0.00 0.00 0.00 0.00 0.00 0.00 0.00 0.00 0.00 0.00 0.00 0.00 0.00 0.00 0.00 0.00 0.00 0.00 0.00
0.00 0.00 0.00 0.00 0.00 0.00 0.00 0.00 0.00 0.00 0.00 0.00 0.00 0.00 0.00 0.00 0.00 0.00 0.00 0.00 0.00 0.00 0.00 0.00 0.00 0.00 0.00 0.00 0.00 0.00 0.00 0.00 0.00 0.00 0.00 0.00 0.00 0.00 0.00 0.00 0.00 0.00 0.00 0.00
0.00 0.00 0.00 0.00 0.00 0.00 0.00 0.00 0.00 0.00 0.00 0.00 0.00 0.00 0.00 0.00 0.00 0.00 0.00 0.00 0.00 0.00 0.00 0.00 0.00 0.00 0.00 0.00 0.00 0.00 0.00 0.00 0.00 0.00 0.00 0.00 0.00 0.00 0.00 0.00 0.00 0.00 0.00 0.00
0.00 0.00 0.00 0.00 0.00 0.00 0.00 0.00 0.00 0.00 0.00 0.00 0.00 0.00 0.00 0.00 0.00 0.00 0.00 0.00 0.00 0.00 0.00 0.00 0.00 0.00 0.00 0.00 0.00 0.00 0.00 0.00 0.00 0.00 0.00 0.00 0.00 0.00 0.00 0.00 0.00 0.00 0.00 0.00
0.00 0.00 0.00 0.00 0.00 0.00 0.00 0.00 0.00 0.00 0.00 0.00 0.00 0.00 0.00 0.00 0.00 0.00 0.00 0.00 0.00 0.00 0.00 0.00 0.00 0.00 0.00 0.00 0.00 0.00 0.00 0.00 0.00 0.00 0.00 0.00 0.00 0.00 0.00 0.00 0.00 0.00 0.01 0.01
0.00 0.00 0.00 0.00 0.00 0.00 0.00 0.00 0.00 0.00 0.00 0.00 0.00 0.00 0.00 0.00 0.00 0.00 0.00 0.00 0.00 0.00 0.00 0.00 0.00 0.00 0.00 0.00 0.00 0.00 0.00 0.00 0.00 0.00 0.00 0.00 0.00 0.00 0.00 0.00 0.00 0.00 0.00 0.01
0.00 0.00 0.00 0.00 0.00 0.00 0.00 0.00 0.00 0.00 0.00 0.00 0.00 0.00 0.00 0.00 0.00 0.00 0.00 0.00 0.00 0.00 0.00 0.00 0.00 0.00 0.00 0.00 0.00 0.00 0.00 0.00 0.00 0.00 0.00 0.00 0.00 0.00 0.00 0.00 0.00 0.00 0.00 0.00
0.00 0.00 0.00 0.00 0.00 0.00 0.00 0.00 0.00 0.00 0.00 0.00 0.00 0.00 0.00 0.00 0.00 0.00 0.00 0.00 0.00 0.00 0.00 0.00 0.00 0.00 0.00 0.00 0.00 0.00 0.00 0.00 0.00 0.00 0.00 0.00 0.00 0.00 0.00 0.00 0.00 0.00 0.00 0.00
0.00 0.00 0.00 0.00 0.00 0.00 0.00 0.00 0.00 0.00 0.00 0.00 0.00 0.00 0.00 0.00 0.00 0.00 0.00 0.00 0.00 0.00 0.00 0.00 0.00 0.00 0.00 0.00 0.00 0.00 0.00 0.00 0.00 0.00 0.00 0.00 0.00 0.00 0.00 0.00 0.00 0.00 0.00 0.00
0.00 0.00 0.00 0.00 0.00 0.00 0.00 0.00 0.00 0.00 0.00 0.00 0.00 0.00 0.00 0.00 0.00 0.00 0.00 0.00 0.00 0.00 0.00 0.00 0.00 0.00 0.00 0.00 0.00 0.00 0.00 0.00 0.00 0.00 0.00 0.00 0.00 0.00 0.00 0.00 0.00 0.00 0.00 0.00
0.00 0.00 0.00 0.00 0.00 0.00 0.00 0.00 0.00 0.00 0.00 0.00 0.00 0.00 0.00 0.00 0.00 0.00 0.00 0.00 0.00 0.00 0.00 0.00 0.00 0.00 0.00 0.00 0.00 0.00 0.00 0.00 0.00 0.00 0.00 0.00 0.00 0.00 0.00 0.00 0.00 0.00 0.00 0.00
0.00 0.00 0.00 0.00 0.00 0.00 0.00 0.00 0.00 0.00 0.00 0.00 0.00 0.00 0.00 0.00 0.00 0.00 0.00 0.00 0.00 0.00 0.00 0.00 0.00 0.00 0.00 0.00 0.00 0.00 0.00 0.00 0.00 0.00 0.00 0.00 0.00 0.00 0.00 0.00 0.00 0.00 0.00 0.00
0.00 0.00 0.00 0.00 0.00 0.00 0.00 0.00 0.00 0.00 0.00 0.00 0.00 0.00 0.00 0.00 0.00 0.00 0.00 0.00 0.00 0.00 0.00 0.00 0.00 0.00 0.00 0.00 0.00 0.00 0.00 0.00 0.00 0.00 0.00 0.00 0.00 0.00 0.00 0.00 0.00 0.00 0.00 0.00
0.00 0.00 0.00 0.00 0.00 0.00 0.00 0.00 0.00 0.00 0.00 0.00 0.00 0.00 0.00 0.00 0.00 0.00 0.00 0.00 0.00 0.00 0.00 0.00 0.00 0.00 0.00 0.00 0.00 0.00 0.00 0.00 0.00 0.00 0.00 0.00 0.00 0.00 0.00 0.00 0.00 0.00 0.00 0.00
0.00 0.00 0.00 0.00 0.00 0.00 0.00 0.00 0.00 0.00 0.00 0.00 0.00 0.00 0.00 0.00 0.00 0.00 0.00 0.00 0.00 0.00 0.00 0.00 0.00 0.00 0.00 0.00 0.00 0.00 0.00 0.00 0.00 0.00 0.00 0.00 0.00 0.00 0.00 0.00 0.00 0.00 0.00 0.00
0.00 0.00 0.00 0.00 0.00 0.00 0.00 0.00 0.00 0.00 0.00 0.00 0.00 0.00 0.00 0.00 0.00 0.00 0.00 0.00 0.00 0.00 0.00 0.00 0.00 0.00 0.00 0.00 0.00 0.00 0.00 0.00 0.00 0.00 0.00 0.00 0.00 0.00 0.00 0.00 0.00 0.00 0.00 0.00
0.00 0.00 0.00 0.00 0.00 0.00 0.00 0.00 0.00 0.00 0.00 0.00 0.00 0.00 0.00 0.00 0.00 0.00 0.00 0.00 0.00 0.00 0.00 0.00 0.00 0.00 0.00 0.00 0.00 0.00 0.00 0.00 0.00 0.00 0.00 0.00 0.00 0.00 0.00 0.00 0.00 0.00 0.00 0.00
0.00 0.00 0.00 0.00 0.00 0.00 0.00 0.00 0.00 0.00 0.00 0.00 0.00 0.00 0.00 0.00 0.00 0.00 0.00 0.00 0.00 0.00 0.00 0.00 0.00 0.00 0.00 0.00 0.00 0.00 0.00 0.00 0.00 0.00 0.00 0.00 0.00 0.00 0.00 0.00 0.00 0.00 0.00 0.00
0.00 0.00 0.00 0.00 0.00 0.00 0.00 0.00 0.00 0.00 0.00 0.00 0.00 0.00 0.00 0.00 0.00 0.00 0.00 0.00 0.00 0.00 0.00 0.00 0.00 0.00 0.00 0.00 0.00 0.00 0.00 0.00 0.00 0.00 0.00 0.00 0.00 0.00 0.00 0.00 0.00 0.00 0.00 0.00
0.00 0.00 0.00 0.00 0.00 0.00 0.00 0.00 0.00 0.00 0.00 0.00 0.00 0.00 0.00 0.00 0.00 0.00 0.00 0.00 0.00 0.00 0.00 0.00 0.00 0.00 0.00 0.00 0.00 0.00 0.00 0.00 0.00 0.00 0.00 0.00 0.00 0.00 0.00 0.00 0.00 0.00 0.00 0.00
0.00 0.00 0.00 0.00 0.00 0.00 0.00 0.00 0.00 0.00 0.00 0.00 0.00 0.00 0.00 0.00 0.00 0.00 0.00 0.00 0.00 0.00 0.00 0.00 0.00 0.00 0.00 0.00 0.00 0.00 0.00 0.00 0.00 0.00 0.00 0.00 0.00 0.00 0.00 0.00 0.00 0.00 0.00 0.00
0.00 0.00 0.00 0.00 0.00 0.00 0.00 0.00 0.00 0.00 0.00 0.00 0.00 0.00 0.00 0.00 0.00 0.00 0.00 0.00 0.00 0.00 0.00 0.00 0.00 0.00 0.00 0.00 0.00 0.00 0.00 0.00 0.00 0.00 0.00 0.00 0.00 0.00 0.00 0.00 0.00 0.00 0.00 0.00
0.00 0.00 0.00 0.00 0.00 0.00 0.00 0.00 0.00 0.00 0.00 0.00 0.00 0.00 0.00 0.00 0.00 0.00 0.00 0.00 0.00 0.00 0.00 0.00 0.00 0.00 0.00 0.00 0.00 0.00 0.00 0.00 0.00 0.00 0.00 0.00 0.00 0.00 0.00 0.00 0.00 0.00 0.00 0.00
0.00 0.00 0.00 0.00 0.00 0.00 0.00 0.00 0.00 0.00 0.00 0.00 0.00 0.00 0.00 0.00 0.00 0.00 0.00 0.00 0.00 0.00 0.00 0.00 0.00 0.00 0.00 0.00 0.00 0.00 0.00 0.00 0.00 0.00 0.00 0.00 0.00 0.00 0.00 0.00 0.00 0.00 0.00 0.00
0.00 0.00 0.00 0.00 0.00 0.00 0.00 0.00 0.00 0.00 0.00 0.00 0.00 0.00 0.00 0.00 0.00 0.00 0.00 0.00 0.00 0.00 0.00 0.00 0.00 0.00 0.00 0.00 0.00 0.00 0.00 0.00 0.00 0.00 0.00 0.00 0.00 0.00 0.00 0.00 0.00 0.00 0.00 0.00
0.00 0.00 0.00 0.00 0.00 0.00 0.00 0.00 0.00 0.00 0.00 0.00 0.00 0.00 0.00 0.00 0.00 0.00 0.00 0.00 0.00 0.00 0.00 0.00 0.00 0.00 0.00 0.00 0.00 0.00 0.00 0.00 0.00 0.00 0.00 0.00 0.00 0.00 0.00 0.00 0.00 0.00 0.00 0.00
MSLP
1011.50 1010.97 1010.08 1010.23 1010.12 1009.60 1009.81 1010.89 1011.78 1012.28 1013.67 1013.62 1013.21 1012.98 1012.76 1013.39 1013.82 1013.75 1013.78 1014.01 1014.30 1014.78 1015.45 1016.11 1016.39 1016.75 1016.84 1016.95 1017.07 1017.49 1017.95 1018.51 1019.67 1020.38 1020.86 1021.23 1021.40 1021.82 1022.08 1022.15 1022.26 1022.49 1022.88 1023.19
1011.57 1010.52 1010.19 1010.24 1010.67 1010.61 1010.47 1010.92 1011.92 1013.49 1014.16 1013.95 1013.45 1012.88 1012.85 1013.65 1013.88 1014.47 1014.67 1014.74 1015.10 1015.47 1015.94 1016.56 1016.76 1017.03 1017.19 1017.19 1017.22 1017.43 1017.73 1018.23 1018.87 1019.86 1020.44 1020.71 1020.97 1021.22 1021.48 1021.88 1022.08 1022.21 1022.44 1022.76
1010.50 1010.50 1010.72 1010.82 1011.03 1010.87 1011.17 1011.21 1012.03 1012.75 1014.27 1014.27 1013.76 1012.65 1012.85 1014.10 1014.67 1015.08 1015.38 1015.78 1016.12 1016.10 1016.33 1016.88 1017.24 1017.38 1017.48 1017.56 1017.43 1017.49 1017.65 1018.04 1018.50 1019.15 1020.05 1020.61 1020.98 1021.12 1021.15 1021.40 1021.77 1021.90 1022.08 1022.30
1010.78 1011.51 1011.36 1011.29 1011.11 1011.21 1011.60 1012.07 1012.41 1013.23 1013.69 1013.58 1013.94 1012.18 1012.29 1013.41 1014.51 1015.04 1015.51 1015.89 1016.45 1016.77 1017.09 1017.44 1017.74 1018.06 1018.28 1018.18 1018.14 1018.00 1017.89 1018.19 1018.45 1018.85 1019.24 1020.16 1020.62 1020.72 1020.81 1020.99 1021.09 1021.27 1021.66 1021.77
1010.94 1011.67 1012.03 1011.94 1011.52 1011.76 1012.30 1012.79 1012.94 1013.50 1013.73 1013.81 1013.89 1013.57 1012.17 1013.27 1014.30 1015.12 1015.54 1016.37 1017.17 1017.42 1017.63 1018.00 1018.38 1018.72 1019.05 1018.91 1018.63 1018.57 1018.66 1018.76 1019.02 1019.08 1019.40 1019.86 1020.47 1020.74 1020.83 1020.97 1021.09 1021.04 1021.06 1021.27
1011.88 1012.47 1012.40 1012.29 1012.74 1012.54 1013.24 1013.40 1013.91 1014.27 1014.45 1014.19 1013.45 1013.51 1011.73 1012.69 1013.24 1014.90 1015.82 1016.57 1017.53 1018.02 1018.37 1018.61 1018.90 1019.04 1019.32 1019.49 1019.43 1019.35 1019.33 1019.44 1019.53 1019.65 1019.83 1019.99 1020.26 1020.95 1021.42 1021.68 1021.71 1021.63 1021.57 1021.52
1012.10 1012.66 1013.22 1013.05 1013.20 1013.71 1013.00 1012.80 1014.06 1014.56 1014.66 1014.06 1014.72 1014.31 1012.10 1012.91 1013.57 1014.68 1015.57 1016.72 1017.89 1018.20 1018.68 1018.95 1019.31 1019.65 1019.87 1019.95 1020.12 1020.16 1020.07 1020.17 1020.38 1020.65 1020.89 1021.08 1021.24 1021.46 1021.52 1021.73 1021.79 1021.84 1021.71 1021.76
1010.97 1012.79 1012.80 1012.80 1012.33 1012.65 1012.78 1012.33 1012.83 1013.65 1014.54 1014.41 1015.28 1014.02 1012.70 1013.69 1014.12 1014.88 1016.04 1016.88 1018.00 1018.71 1019.22 1019.51 1020.05 1020.29 1020.59 1020.73 1020.78 1021.01 1021.06 1021.20 1021.35 1021.42 1021.64 1021.90 1021.99 1022.07 1022.29 1022.50 1022.57 1022.60 1022.58 1022.55
1010.00 1011.91 1013.11 1013.29 1013.08 1012.70 1013.24 1012.88 1013.22 1013.98 1015.72 1014.80 1013.73 1013.34 1013.93 1014.53 1014.79 1015.36 1016.35 1017.32 1017.98 1018.86 1019.59 1019.98 1020.46 1020.82 1021.12 1021.32 1021.38 1021.61 1021.80 1022.14 1022.30 1022.33 1022.48 1022.63 1022.84 1022.98 1023.17 1023.14 1023.13 1023.27 1023.11 1023.01
1009.59 1011.36 1013.50 1013.98 1013.57 1013.61 1012.99 1012.59 1013.32 1013.35 1014.13 1013.68 1012.58 1012.58 1012.15 1013.73 1014.23 1015.23 1016.11 1016.97 1018.03 1018.99 1019.71 1020.18 1020.75 1021.39 1021.76 1021.88 1022.03 1022.20 1022.35 1022.75 1023.04 1023.11 1023.21 1023.36 1023.52 1023.65 1023.77 1023.79 1023.83 1023.81 1023.74 1023.56
1009.87 1010.74 1014.06 1014.40 1013.15 1012.68 1013.33 1012.55 1012.50 1012.43 1012.82 1012.48 1012.27 1011.44 1011.33 1011.77 1012.91 1014.00 1015.50 1016.56 1017.97 1018.96 1019.72 1020.26 1020.95 1021.61 1022.16 1022.49 1022.55 1022.97 1023.15 1023.42 1023.83 1023.87 1024.05 1024.00 1024.13 1024.22 1024.29 1024.34 1024.28 1024.19 1024.04 1023.97
1010.36 1011.45 1013.15 1013.46 1013.68 1013.50 1012.71 1012.14 1012.15 1012.04 1012.74 1012.82 1012.75 1011.83 1011.90 1011.33 1012.36 1013.84 1015.14 1016.51 1018.00 1019.04 1019.76 1020.43 1021.29 1021.79 1022.40 1022.94 1023.43 1023.61 1023.94 1024.26 1024.53 1024.55 1024.64 1024.78 1024.93 1024.87 1024.93 1024.95 1024.89 1024.86 1024.50 1024.30
1010.13 1011.14 1012.91 1013.93 1014.20 1013.83 1013.02 1012.41 1011.88 1011.91 1012.38 1012.79 1012.84 1011.80 1012.16 1011.73 1012.39 1013.69 1014.92 1016.56 1017.99 1019.25 1020.22 1021.10 1021.48 1022.04 1022.57 1023.13 1023.70 1023.98 1024.39 1024.80 1024.98 1025.01 1025.20 1025.28 1025.38 1025.42 1025.51 1025.49 1025.41 1025.21 1024.99 1024.62
1010.07 1010.61 1010.82 1010.99 1010.64 1011.03 1012.09 1011.58 1011.66 1011.63 1012.11 1011.38 1011.21 1011.00 1011.73 1011.90 1012.53 1013.88 1015.12 1016.57 1017.82 1019.00 1020.18 1020.80 1021.38 1022.19 1022.79 1023.19 1023.77 1024.20 1024.65 1025.07 1025.28 1025.29 1025.40 1025.42 1025.83 1025.85 1025.70 1025.82 1025.88 1025.80 1025.49 1025.13
1010.94 1011.28 1011.44 1011.21 1011.67 1011.40 1011.22 1011.31 1011.57 1011.63 1010.52 1010.86 1009.63 1009.94 1010.04 1011.34 1012.14 1013.11 1014.70 1016.52 1017.64 1018.86 1019.92 1020.72 1021.58 1022.30 1022.85 1023.44 1024.03 1024.39 1024.94 1025.30 1025.42 1025.55 1025.77 1026.08 1026.17 1026.52 1026.53 1026.34 1026.22 1026.09 1025.89 1025.34
1011.83 1012.02 1012.06 1012.63 1012.72 1012.53 1012.07 1011.54 1011.24 1011.03 1010.43 1010.19 1009.34 1009.07 1009.41 1010.63 1012.36 1013.57 1014.71 1015.95 1017.15 1018.56 1019.73 1020.81 1021.64 1022.24 1022.91 1023.65 1024.21 1024.73 1025.22 1025.68 1026.03 1026.30 1026.60 1026.86 1027.11 1026.84 1026.77 1026.72 1026.51 1025.92 1025.78 1025.31
1012.00 1012.52 1013.17 1013.42 1013.46 1013.06 1012.43 1010.57 1010.56 1010.38 1009.83 1009.21 1009.06 1008.09 1009.78 1010.71 1011.78 1012.89 1014.21 1015.34 1016.63 1018.14 1019.45 1020.64 1021.64 1022.53 1023.31 1023.96 1024.55 1025.09 1025.70 1026.18 1026.70 1026.94 1027.03 1027.23 1027.08 1026.94 1026.87 1026.78 1026.41 1025.94 1025.59 1025.16
1011.82 1012.80 1013.28 1013.82 1014.04 1013.04 1009.99 1010.02 1009.75 1009.63 1009.03 1009.02 1008.81 1008.81 1009.46 1010.13 1011.08 1012.07 1013.54 1014.99 1016.49 1017.99 1019.46 1020.66 1021.65 1022.68 1023.56 1024.28 1024.93 1025.50 1026.26 1026.53 1026.99 1027.31 1027.37 1027.12 1027.18 1027.21 1027.11 1026.87 1026.46 1025.95 1025.59 1025.08
1011.86 1012.23 1013.18 1013.48 1013.31 1011.47 1010.17 1010.49 1010.07 1009.73 1008.69 1008.81 1008.53 1009.19 1010.03 1010.73 1012.02 1013.09 1013.92 1015.39 1016.59 1018.04 1019.52 1020.66 1021.77 1022.82 1023.84 1024.70 1025.47 1025.99 1026.71 1027.18 1027.27 1027.34 1027.41 1027.49 1027.53 1027.48 1027.25 1026.96 1026.40 1025.95 1025.54 1024.98
1012.71 1011.96 1012.40 1013.15 1012.45 1011.09 1008.60 1009.56 1009.92 1010.30 1009.26 1008.25 1009.05 1009.60 1010.47 1011.58 1012.47 1012.18 1014.09 1015.61 1017.16 1018.55 1019.79 1021.05 1022.36 1023.50 1024.50 1025.51 1026.15 1026.98 1027.33 1027.24 1027.34 1027.75 1027.81 1027.83 1027.85 1027.65 1027.34 1027.09 1026.62 1026.10 1025.60 1024.86
1012.63 1012.50 1012.08 1012.36 1011.82 1010.60 1009.80 1010.17 1010.45 1011.01 1009.46 1008.41 1008.62 1009.00 1010.27 1010.95 1011.21 1012.46 1014.62 1016.38 1017.60 1018.95 1020.42 1021.75 1022.85 1023.93 1025.25 1026.28 1026.74 1026.98 1027.26 1027.47 1027.77 1028.01 1028.12 1028.14 1028.01 1027.87 1027.59 1027.16 1026.75 1026.07 1025.40 1024.54
1010.99 1011.37 1011.75 1011.95 1011.67 1010.77 1010.09 1011.07 1010.55 1010.01 1010.07 1009.92 1009.90 1010.25 1011.27 1012.32 1013.03 1013.90 1015.12 1016.63 1017.98 1019.43 1020.96 1021.99 1023.57 1024.89 1025.76 1026.47 1026.69 1027.24 1027.60 1027.98 1028.26 1028.55 1028.57 1028.38 1028.28 1028.10 1027.65 1027.20 1026.57 1026.01 1025.32 1024.44
1011.09 1010.32 1010.66 1010.78 1009.87 1009.90 1009.99 1010.03 1009.87 1010.27 1010.54 1010.77 1010.75 1011.17 1012.05 1013.08 1014.00 1015.00 1015.98 1017.36 1018.60 1020.03 1021.58 1022.85 1023.96 1025.07 1025.96 1026.67 1027.09 1027.67 1028.15 1028.48 1028.80 1029.08 1029.05 1028.80 1028.37 1027.92 1027.42 1026.84 1026.20 1025.74 1025.11 1024.36
1010.96 1010.83 1010.67 1010.67 1010.23 1010.32 1010.49 1010.75 1010.81 1011.09 1011.14 1011.21 1011.43 1011.85 1012.39 1013.55 1014.79 1015.94 1017.10 1018.32 1019.70 1021.27 1022.59 1023.63 1024.44 1025.30 1026.14 1026.86 1027.44 1028.01 1028.51 1028.92 1029.31 1029.33 1029.01 1028.59 1028.12 1027.54 1027.05 1026.60 1026.18 1025.52 1024.91 1024.02
1010.59 1010.64 1010.57 1010.60 1010.86 1010.90 1010.72 1010.70 1010.92 1011.60 1011.85 1012.11 1012.41 1012.74 1013.22 1014.21 1015.73 1016.51 1017.69 1019.13 1020.59 1021.86 1023.08 1023.87 1024.58 1025.49 1026.39 1027.13 1027.77 1028.41 1028.92 1029.33 1029.52 1029.32 1028.91 1028.40 1027.83 1027.40 1026.90 1026.36 1025.75 1025.09 1024.59 1024.00
1010.39 1009.97 1010.16 1009.71 1009.67 1009.92 1010.15 1010.25 1011.10 1011.81 1012.17 1012.52 1012.71 1013.58 1014.19 1014.64 1015.71 1017.09 1018.54 1019.78 1020.99 1022.31 1023.38 1024.34 1025.28 1026.10 1026.96 1027.72 1028.40 1028.91 1029.30 1029.54 1029.68 1029.31 1028.75 1028.34 1027.94 1027.33 1026.71 1025.82 1024.77 1024.56 1023.85 1023.18
Thickness
5636 5638 5646 5659 5672 5686 5689 5677 5674 5684 5674 5679 5684 5689 5701 5700 5699 5704 5709 5711 5713 5713 5713 5711 5711 5711 5713 5714 5714 5711 5709 5706 5697 5691 5686 5683 5680 5677 5674 5673 5671 5668 5665 5662
5622 5634 5660 5669 5661 5665 5674 5673 5669 5658 5661 5668 5679 5683 5695 5693 5697 5694 5696 5701 5702 5703 5705 5702 5705 5705 5705 5707 5708 5707 5706 5703 5699 5690 5686 5684 5682 5679 5675 5669 5666 5665 5663 5660
5629 5641 5644 5649 5651 5657 5660 5664 5663 5669 5652 5660 5668 5681 5686 5679 5683 5686 5688 5688 5689 5694 5697 5696 5695 5697 5699 5699 5702 5702 5702 5699 5697 5693 5684 5679 5677 5675 5674 5672 5666 5662 5659 5657
5629 5623 5635 5643 5648 5658 5646 5659 5662 5651 5656 5658 5658 5675 5684 5681 5678 5680 5683 5686 5685 5685 5687 5688 5688 5687 5687 5689 5691 5693 5695 5693 5692 5689 5685 5676 5673 5672 5671 5669 5667 5662 5656 5654
5619 5617 5622 5629 5645 5651 5645 5649 5651 5649 5651 5652 5651 5655 5686 5675 5670 5673 5679 5676 5674 5677 5679 5677 5676 5676 5675 5678 5682 5683 5683 5682 5680 5680 5677 5673 5667 5665 5664 5662 5659 5658 5655 5650
5607 5613 5623 5630 5626 5636 5632 5634 5634 5637 5637 5628 5657 5653 5684 5672 5682 5672 5670 5671 5666 5666 5666 5667 5668 5669 5667 5667 5668 5670 5670 5669 5669 5668 5667 5665 5663 5656 5650 5647 5645 5644 5643 5641
5595 5602 5607 5617 5613 5616 5632 5634 5610 5609 5608 5622 5617 5627 5676 5673 5678 5672 5667 5663 5658 5661 5660 5660 5658 5657 5656 5657 5656 5656 5657 5656 5654 5652 5650 5648 5647 5644 5643 5640 5637 5635 5633 5630
5599 5586 5601 5613 5625 5621 5625 5638 5621 5602 5608 5630 5599 5624 5661 5665 5668 5668 5661 5658 5652 5649 5647 5647 5645 5645 5643 5644 5644 5642 5641 5639 5638 5638 5636 5633 5632 5631 5627 5624 5622 5619 5616 5614
5606 5596 5598 5605 5612 5625 5614 5613 5626 5601 5563 5609 5630 5644 5645 5643 5649 5652 5649 5645 5644 5640 5636 5635 5635 5634 5632 5631 5631 5629 5627 5623 5622 5622 5620 5618 5616 5613 5610 5609 5607 5602 5601 5599
5615 5589 5585 5589 5602 5602 5614 5626 5604 5614 5587 5601 5634 5638 5659 5637 5644 5644 5640 5640 5635 5631 5627 5627 5625 5621 5619 5619 5617 5616 5615 5612 5610 5608 5607 5604 5601 5598 5595 5593 5590 5588 5585 5583
5606 5602 5569 5578 5595 5608 5598 5606 5613 5624 5618 5617 5618 5639 5663 5657 5652 5646 5639 5637 5628 5623 5620 5618 5615 5610 5606 5604 5604 5602 5600 5597 5593 5592 5589 5588 5585 5583 5581 5578 5576 5573 5571 5569
5593 5586 5570 5583 5581 5586 5607 5616 5616 5610 5597 5607 5604 5636 5640 5661 5653 5645 5637 5629 5620 5615 5611 5607 5600 5598 5593 5590 5586 5584 5581 5578 5576 5574 5572 5569 5566 5565 5563 5561 5559 5556 5555 5553
5587 5575 5552 5555 5567 5571 5586 5599 5613 5616 5594 5579 5594 5632 5625 5642 5645 5638 5630 5618 5609 5601 5594 5589 5588 5587 5583 5578 5573 5570 5566 5562 5560 5559 5556 5553 5551 5549 5546 5544 5541 5539 5537 5537
5582 5574 5584 5588 5611 5611 5590 5603 5603 5608 5589 5609 5610 5637 5617 5629 5629 5623 5613 5604 5598 5591 5584 5584 5581 5575 5570 5566 5561 5558 5553 5549 5546 5544 5542 5541 5536 5534 5533 5529 5524 5521 5520 5520
5565 5557 5576 5595 5578 5590 5596 5592 5588 5585 5611 5597 5629 5621 5633 5620 5620 5616 5606 5597 5592 5584 5577 5572 5566 5560 5556 5551 5546 5543 5537 5533 5532 5530 5527 5523 5520 5515 5512 5510 5507 5505 5503 5503
5544 5542 5565 5546 5557 5562 5566 5580 5582 5587 5601 5602 5620 5619 5640 5626 5612 5604 5599 5589 5584 5575 5567 5557 5552 5548 5544 5537 5531 5527 5522 5517 5513 5509 5505 5502 5498 5496 5495 5492 5490 5491 5489 5488
5539 5527 5534 5547 5533 5544 5541 5573 5583 5589 5599 5609 5600 5634 5613 5609 5604 5601 5591 5583 5575 5565 5557 5546 5538 5532 5527 5521 5515 5511 5505 5499 5494 5490 5487 5484 5483 5482 5479 5477 5476 5476 5475 5474
5531 5514 5515 5522 5518 5523 5582 5582 5591 5588 5600 5601 5608 5616 5607 5605 5603 5594 5587 5578 5567 5556 5544 5534 5527 5518 5509 5504 5499 5493 5486 5482 5477 5473 5470 5470 5467 5464 5462 5461 5460 5459 5457 5456
5528 5524 5510 5523 5523 5551 5571 5558 5568 5572 5589 5599 5603 5602 5592 5589 5579 5574 5576 5565 5555 5542 5530 5521 5512 5504 5495 5487 5479 5474 5469 5464 5462 5460 5456 5452 5450 5447 5446 5444 5444 5441 5439 5438
5497 5519 5525 5503 5524 5535 5590 5562 5563 5563 5562 5598 5587 5584 5576 5568 5558 5579 5562 5548 5533 5523 5514 5503 5492 5484 5476 5466 5460 5454 5450 5449 5446 5440 5437 5435 5433 5431 5429 5427 5424 5422 5420 5422
5486 5491 5509 5506 5517 5533 5543 5536 5548 5540 5575 5567 5582 5583 5566 5565 5573 5560 5537 5522 5514 5504 5493 5483 5476 5468 5457 5447 5443 5442 5438 5434 5428 5424 5421 5417 5415 5412 5409 5409 5405 5405 5404 5404
5501 5501 5501 5501 5511 5528 5530 5524 5545 5555 5535 5543 5553 5556 5547 5532 5531 5527 5522 5508 5498 5487 5476 5468 5457 5447 5439 5433 5430 5426 5423 5416 5410 5405 5402 5400 5396 5392 5391 5389 5387 5383 5381 5382
5492 5508 5505 5515 5534 5515 5524 5526 5531 5527 5527 5524 5530 5530 5521 5513 5510 5507 5501 5490 5482 5472 5460 5450 5441 5432 5425 5418 5414 5409 5404 5397 5391 5385 5381 5379 5377 5374 5372 5371 5369 5365 5360 5359
5465 5469 5485 5495 5502 5504 5505 5503 5505 5504 5507 5507 5511 5508 5505 5498 5492 5486 5479 5469 5459 5444 5433 5426 5421 5415 5409 5402 5396 5390 5383 5376 5369 5365 5363 5362 5361 5359 5356 5353 5348 5346 5342 5341
5465 5462 5470 5476 5472 5480 5488 5491 5492 5484 5484 5486 5489 5489 5487 5480 5471 5466 5455 5445 5435 5424 5414 5408 5403 5397 5390 5383 5377 5370 5363 5357 5352 5349 5347 5346 5345 5342 5340 5337 5333 5330 5323 5317
5448 5469 5473 5494 5482 5487 5490 5483 5472 5470 5471 5470 5467 5462 5462 5464 5458 5445 5434 5426 5416 5404 5395 5387 5381 5375 5368 5361 5355 5350 5343 5339 5333 5333 5333 5330 5326 5325 5323 5324 5326 5314 5308 5302